RED82 YSSY-YMML

Flight info

Callsign RED82
Flight time 1h 28m
Altitude 30000
Route YSSY RWY16L ABBEY3 WOL H65 LEECE Q29 BOOIN BOIN1A YMML VISAS I27 Y
Aircraft SF50/L-SDFGRY/L

Departure

Time 2026-04-20 00:58
Airport Sydney Kingsford Smith International Airport (YSSY)

Arrival

Time 2026-04-20 02:27
Airport Melbourne Airport (YMML)
Time Latitude Longitude Altitude Speed Heading
2026-04-20 00:36 -33.93697 151.17981 24 ft 0 kts 335°
2026-04-20 00:47 -33.93704 151.17985 24 ft 3 kts 335°
2026-04-20 00:47 -33.93720 151.17994 26 ft 3 kts 335°
2026-04-20 00:47 -33.93737 151.18003 24 ft 3 kts 335°
2026-04-20 00:48 -33.93753 151.18013 24 ft 3 kts 335°
2026-04-20 00:48 -33.93769 151.18022 24 ft 3 kts 335°
2026-04-20 00:48 -33.93785 151.18031 24 ft 3 kts 335°
2026-04-20 00:53 -33.93783 151.18026 24 ft 5 kts 270°
2026-04-20 00:53 -33.93804 151.17938 22 ft 18 kts 251°
2026-04-20 00:53 -33.93836 151.17820 16 ft 15 kts 253°
2026-04-20 00:53 -33.93860 151.17698 13 ft 9 kts 255°
2026-04-20 00:54 -33.93867 151.17621 12 ft 10 kts 296°
2026-04-20 00:54 -33.93799 151.17584 12 ft 12 kts 348°
2026-04-20 00:54 -33.93710 151.17561 11 ft 14 kts 348°
2026-04-20 00:54 -33.93605 151.17533 10 ft 16 kts 348°
2026-04-20 00:55 -33.93495 151.17508 13 ft 16 kts 348°
2026-04-20 00:55 -33.93391 151.17505 15 ft 15 kts 350°
2026-04-20 00:55 -33.93287 151.17479 15 ft 16 kts 348°
2026-04-20 00:55 -33.93175 151.17450 15 ft 17 kts 348°
2026-04-20 00:56 -33.93062 151.17422 17 ft 15 kts 346°
2026-04-20 00:56 -33.92973 151.17377 16 ft 13 kts 298°
2026-04-20 00:56 -33.92960 151.17313 14 ft 0 kts 280°
2026-04-20 00:57 -33.92958 151.17299 14 ft 8 kts 281°
2026-04-20 00:57 -33.92991 151.17187 13 ft 20 kts 204°
2026-04-20 00:58 -33.93203 151.17233 16 ft 62 kts 169°
2026-04-20 00:58 -33.93863 151.17393 202 ft 115 kts 169°
2026-04-20 00:58 -33.94706 151.17594 629 ft 138 kts 169°
2026-04-20 00:58 -33.95698 151.17840 1112 ft 147 kts 168°
2026-04-20 00:59 -33.96687 151.18096 1800 ft 144 kts 168°
2026-04-20 00:59 -33.97633 151.18432 2490 ft 140 kts 163°
2026-04-20 00:59 -33.98563 151.18727 3156 ft 137 kts 174°
2026-04-20 00:59 -33.99401 151.18295 3793 ft 135 kts 223°
2026-04-20 01:00 -34.00238 151.17637 4397 ft 157 kts 198°
2026-04-20 01:00 -34.01389 151.17521 5047 ft 176 kts 179°
2026-04-20 01:00 -34.02668 151.17578 5692 ft 191 kts 175°
2026-04-20 01:00 -34.04001 151.17952 6327 ft 203 kts 163°
2026-04-20 01:01 -34.05376 151.18482 6966 ft 210 kts 163°
2026-04-20 01:01 -34.06779 151.18988 7713 ft 210 kts 164°
2026-04-20 01:01 -34.08186 151.19457 8456 ft 209 kts 165°
2026-04-20 01:01 -34.09587 151.19913 9196 ft 208 kts 165°
2026-04-20 01:02 -34.10980 151.20370 9937 ft 207 kts 165°
2026-04-20 01:02 -34.12364 151.20830 10679 ft 205 kts 165°
2026-04-20 01:02 -34.13731 151.21286 11423 ft 202 kts 165°
2026-04-20 01:02 -34.15069 151.21733 12161 ft 197 kts 165°
2026-04-20 01:03 -34.16362 151.22163 12819 ft 195 kts 165°
2026-04-20 01:03 -34.17669 151.22597 13437 ft 194 kts 165°
2026-04-20 01:03 -34.18978 151.22865 14045 ft 190 kts 184°
2026-04-20 01:03 -34.20242 151.22509 14663 ft 185 kts 202°
2026-04-20 01:04 -34.21302 151.21688 15275 ft 180 kts 225°
2026-04-20 01:04 -34.22102 151.20532 15896 ft 179 kts 232°
2026-04-20 01:04 -34.22872 151.19355 16514 ft 178 kts 231°
2026-04-20 01:04 -34.23675 151.18199 17137 ft 176 kts 230°
2026-04-20 01:05 -34.24460 151.17101 17745 ft 174 kts 229°
2026-04-20 01:05 -34.25244 151.16012 18357 ft 170 kts 229°
2026-04-20 01:05 -34.26007 151.14949 18963 ft 165 kts 229°
2026-04-20 01:05 -34.26744 151.13917 19572 ft 159 kts 230°
2026-04-20 01:06 -34.27448 151.12927 20172 ft 151 kts 230°
2026-04-20 01:06 -34.28114 151.11992 20765 ft 142 kts 230°
2026-04-20 01:06 -34.28617 151.11286 21236 ft 132 kts 230°
2026-04-20 01:06 -34.28943 151.10847 21546 ft 125 kts 227°
2026-04-20 01:07 -34.29524 151.10100 21959 ft 122 kts 229°
2026-04-20 01:07 -34.30089 151.09331 22326 ft 122 kts 229°
2026-04-20 01:07 -34.30645 151.08564 22694 ft 121 kts 230°
2026-04-20 01:07 -34.31186 151.07799 23058 ft 119 kts 231°
2026-04-20 01:08 -34.31714 151.07047 23416 ft 116 kts 230°
2026-04-20 01:08 -34.32234 151.06307 23710 ft 118 kts 231°
2026-04-20 01:08 -34.32773 151.05536 23982 ft 122 kts 230°
2026-04-20 01:08 -34.33334 151.04739 24256 ft 127 kts 230°
2026-04-20 01:09 -34.33924 151.03902 24536 ft 134 kts 230°
2026-04-20 01:09 -34.34547 151.03021 24816 ft 142 kts 230°
2026-04-20 01:09 -34.35208 151.02088 25094 ft 150 kts 230°
2026-04-20 01:09 -34.35909 151.01098 25365 ft 160 kts 230°
2026-04-20 01:10 -34.36617 151.00098 25628 ft 168 kts 230°
2026-04-20 01:10 -34.38341 150.97981 26177 ft 185 kts 222°
2026-04-20 01:10 -34.39326 150.96923 26435 ft 193 kts 222°
2026-04-20 01:11 -34.40353 150.95820 26698 ft 201 kts 222°
2026-04-20 01:11 -34.41417 150.94670 26961 ft 209 kts 222°
2026-04-20 01:11 -34.42514 150.93479 27221 ft 215 kts 222°
2026-04-20 01:11 -34.43640 150.92256 27476 ft 220 kts 222°
2026-04-20 01:12 -34.44793 150.91003 27726 ft 225 kts 222°
2026-04-20 01:12 -34.45967 150.89730 27980 ft 229 kts 222°
2026-04-20 01:12 -34.47185 150.88407 27998 ft 241 kts 222°
2026-04-20 01:12 -34.48437 150.87049 28010 ft 251 kts 222°
2026-04-20 01:13 -34.49762 150.85609 28008 ft 261 kts 222°
2026-04-20 01:13 -34.51028 150.84231 28008 ft 268 kts 222°
2026-04-20 01:13 -34.52438 150.82697 28010 ft 277 kts 222°
2026-04-20 01:13 -34.53891 150.81114 28009 ft 285 kts 222°
2026-04-20 01:14 -34.55380 150.79488 28001 ft 291 kts 223°
2026-04-20 01:14 -34.56722 150.77634 28005 ft 295 kts 233°
2026-04-20 01:14 -34.57899 150.75575 28010 ft 299 kts 236°
2026-04-20 01:14 -34.59012 150.73587 28009 ft 303 kts 235°
2026-04-20 01:15 -34.61544 150.69437 28009 ft 308 kts 233°
2026-04-20 01:15 -34.64060 150.65308 28010 ft 311 kts 234°
2026-04-20 01:16 -34.66605 150.61042 28010 ft 312 kts 234°
2026-04-20 01:16 -34.69145 150.56835 28001 ft 308 kts 234°
2026-04-20 01:17 -34.71678 150.52623 28002 ft 309 kts 234°
2026-04-20 01:17 -34.74208 150.48398 27997 ft 309 kts 234°
2026-04-20 01:18 -34.76682 150.44273 28002 ft 308 kts 234°
2026-04-20 01:18 -34.79204 150.40065 27999 ft 307 kts 234°
2026-04-20 01:19 -34.80461 150.37962 28000 ft 308 kts 234°
2026-04-20 01:19 -34.81727 150.35843 28001 ft 311 kts 234°
2026-04-20 01:19 -34.84281 150.31565 28006 ft 314 kts 234°
2026-04-20 01:20 -34.86859 150.27246 28009 ft 316 kts 234°
2026-04-20 01:20 -34.89436 150.22919 28005 ft 315 kts 234°
2026-04-20 01:21 -34.92005 150.18599 28003 ft 315 kts 234°
2026-04-20 01:21 -34.94578 150.14274 28005 ft 315 kts 234°
2026-04-20 01:22 -34.97147 150.09944 28002 ft 315 kts 234°
2026-04-20 01:22 -34.99718 150.05604 28002 ft 316 kts 234°
2026-04-20 01:23 -35.01859 150.01991 28006 ft 316 kts 234°
2026-04-20 01:23 -35.04868 149.96902 28006 ft 316 kts 234°
2026-04-20 01:24 -35.07005 149.93281 28006 ft 316 kts 234°
2026-04-20 01:24 -35.09547 149.88974 28382 ft 304 kts 234°
2026-04-20 01:25 -35.10760 149.86920 28748 ft 293 kts 234°
2026-04-20 01:25 -35.11931 149.84933 29115 ft 284 kts 234°
2026-04-20 01:25 -35.13068 149.83002 29483 ft 276 kts 234°
2026-04-20 01:25 -35.14171 149.81127 29847 ft 268 kts 234°
2026-04-20 01:26 -35.15253 149.79288 29991 ft 269 kts 234°
2026-04-20 01:26 -35.16356 149.77410 29993 ft 275 kts 234°
2026-04-20 01:26 -35.17486 149.75484 30000 ft 282 kts 234°
2026-04-20 01:26 -35.18641 149.73517 30005 ft 287 kts 234°
2026-04-20 01:27 -35.19815 149.71515 30004 ft 292 kts 234°
2026-04-20 01:27 -35.21006 149.69483 30006 ft 296 kts 234°
2026-04-20 01:27 -35.22211 149.67427 30006 ft 299 kts 234°
2026-04-20 01:27 -35.23427 149.65353 30007 ft 302 kts 234°
2026-04-20 01:28 -35.25889 149.61147 30009 ft 306 kts 234°
2026-04-20 01:28 -35.28377 149.56887 30009 ft 309 kts 234°
2026-04-20 01:29 -35.30886 149.52591 30006 ft 311 kts 234°
2026-04-20 01:29 -35.33388 149.48300 30006 ft 312 kts 234°
2026-04-20 01:30 -35.35917 149.43957 30013 ft 314 kts 234°
2026-04-20 01:30 -35.38451 149.39600 30011 ft 314 kts 234°
2026-04-20 01:31 -35.40986 149.35236 30006 ft 315 kts 234°
2026-04-20 01:31 -35.43523 149.30863 30012 ft 315 kts 234°
2026-04-20 01:32 -35.46059 149.26484 30008 ft 315 kts 235°
2026-04-20 01:32 -35.48596 149.22100 30005 ft 315 kts 235°
2026-04-20 01:33 -35.51131 149.17713 30005 ft 315 kts 235°
2026-04-20 01:33 -35.53663 149.13326 30005 ft 315 kts 235°
2026-04-20 01:34 -35.56197 149.08932 30005 ft 315 kts 235°
2026-04-20 01:34 -35.58730 149.04532 30005 ft 315 kts 235°
2026-04-20 01:35 -35.61261 149.00130 30005 ft 315 kts 235°
2026-04-20 01:35 -35.63788 148.95730 30014 ft 315 kts 235°
2026-04-20 01:36 -35.66311 148.91330 30008 ft 314 kts 235°
2026-04-20 01:36 -35.68811 148.86965 30003 ft 314 kts 235°
2026-04-20 01:37 -35.71322 148.82576 30006 ft 314 kts 235°
2026-04-20 01:37 -35.73831 148.78185 30002 ft 313 kts 235°
2026-04-20 01:38 -35.76332 148.73802 30010 ft 313 kts 235°
2026-04-20 01:38 -35.78832 148.69413 30017 ft 313 kts 235°
2026-04-20 01:39 -35.81334 148.65020 30005 ft 313 kts 235°
2026-04-20 01:39 -35.83832 148.60626 30002 ft 313 kts 235°
2026-04-20 01:40 -35.86329 148.56226 30002 ft 313 kts 235°
2026-04-20 01:40 -35.88820 148.51832 30002 ft 313 kts 235°
2026-04-20 01:41 -35.91302 148.47432 30010 ft 312 kts 235°
2026-04-20 01:41 -35.93779 148.43027 30009 ft 312 kts 235°
2026-04-20 01:42 -35.96259 148.38625 30006 ft 312 kts 235°
2026-04-20 01:42 -35.98739 148.34214 30002 ft 313 kts 235°
2026-04-20 01:43 -36.01214 148.29799 30005 ft 313 kts 236°
2026-04-20 01:43 -36.03692 148.25377 30002 ft 313 kts 235°
2026-04-20 01:44 -36.06170 148.20955 30003 ft 313 kts 236°
2026-04-20 01:44 -36.08647 148.16520 30004 ft 314 kts 236°
2026-04-20 01:45 -36.11130 148.12072 30011 ft 315 kts 236°
2026-04-20 01:45 -36.13615 148.07621 30006 ft 314 kts 235°
2026-04-20 01:46 -36.16092 148.03201 30005 ft 312 kts 235°
2026-04-20 01:46 -36.18553 147.98798 30002 ft 311 kts 236°
2026-04-20 01:47 -36.21015 147.94377 30004 ft 313 kts 236°
2026-04-20 01:47 -36.23469 147.89954 30009 ft 314 kts 236°
2026-04-20 01:48 -36.25955 147.85497 30005 ft 315 kts 235°
2026-04-20 01:48 -36.28443 147.81046 30006 ft 313 kts 236°
2026-04-20 01:49 -36.30892 147.76611 30003 ft 311 kts 236°
2026-04-20 01:49 -36.33353 147.72175 30003 ft 313 kts 236°
2026-04-20 01:50 -36.35809 147.67714 30008 ft 313 kts 236°
2026-04-20 01:50 -36.38269 147.63244 30009 ft 314 kts 236°
2026-04-20 01:51 -36.40734 147.58779 30008 ft 314 kts 236°
2026-04-20 01:51 -36.43198 147.54297 30005 ft 314 kts 236°
2026-04-20 01:52 -36.45664 147.49808 30006 ft 315 kts 236°
2026-04-20 01:52 -36.48127 147.45318 30015 ft 314 kts 236°
2026-04-20 01:53 -36.50561 147.40870 30017 ft 312 kts 236°
2026-04-20 01:53 -36.52982 147.36450 30016 ft 311 kts 236°
2026-04-20 01:54 -36.55410 147.32008 30001 ft 311 kts 236°
2026-04-20 01:54 -36.57766 147.27689 30002 ft 312 kts 236°
2026-04-20 01:55 -36.60210 147.23211 30007 ft 313 kts 236°
2026-04-20 01:55 -36.62652 147.18719 30003 ft 314 kts 236°
2026-04-20 01:56 -36.65098 147.14220 30004 ft 314 kts 236°
2026-04-20 01:56 -36.67542 147.09721 30004 ft 313 kts 236°
2026-04-20 01:57 -36.69976 147.05230 30002 ft 313 kts 236°
2026-04-20 01:57 -36.72415 147.00728 30004 ft 314 kts 236°
2026-04-20 01:58 -36.74855 146.96210 30012 ft 314 kts 236°
2026-04-20 01:58 -36.77290 146.91703 30003 ft 313 kts 236°
2026-04-20 01:59 -36.79726 146.87184 30004 ft 314 kts 236°
2026-04-20 01:59 -36.82147 146.82690 30004 ft 313 kts 236°
2026-04-20 02:00 -36.84575 146.78176 30003 ft 313 kts 236°
2026-04-20 02:00 -36.87003 146.73653 30010 ft 314 kts 236°
2026-04-20 02:01 -36.89434 146.69119 30010 ft 314 kts 236°
2026-04-20 02:01 -36.91866 146.64583 30003 ft 314 kts 236°
2026-04-20 02:02 -36.94294 146.60041 30004 ft 314 kts 236°
2026-04-20 02:02 -36.96724 146.55495 30011 ft 315 kts 236°
2026-04-20 02:03 -36.99152 146.50939 30011 ft 315 kts 236°
2026-04-20 02:03 -37.01579 146.46383 30004 ft 315 kts 236°
2026-04-20 02:04 -37.04004 146.41825 30003 ft 314 kts 236°
2026-04-20 02:04 -37.06426 146.37277 30011 ft 314 kts 236°
2026-04-20 02:05 -37.08845 146.32717 30010 ft 314 kts 237°
2026-04-20 02:05 -37.11265 146.28150 30012 ft 315 kts 237°
2026-04-20 02:06 -37.13660 146.23623 29970 ft 299 kts 237°
2026-04-20 02:06 -37.14806 146.21456 29585 ft 298 kts 237°
2026-04-20 02:06 -37.15950 146.19291 29208 ft 298 kts 237°
2026-04-20 02:07 -37.17094 146.17121 28832 ft 299 kts 237°
2026-04-20 02:07 -37.18243 146.14946 28459 ft 300 kts 237°
2026-04-20 02:07 -37.19395 146.12762 28085 ft 301 kts 237°
2026-04-20 02:07 -37.20551 146.10568 27711 ft 302 kts 237°
2026-04-20 02:08 -37.21695 146.08397 27344 ft 303 kts 237°
2026-04-20 02:08 -37.22855 146.06194 26972 ft 303 kts 237°
2026-04-20 02:08 -37.24017 146.03984 26600 ft 304 kts 237°
2026-04-20 02:08 -37.25180 146.01767 26222 ft 305 kts 237°
2026-04-20 02:09 -37.26346 145.99544 25847 ft 305 kts 237°
2026-04-20 02:09 -37.27512 145.97317 25473 ft 306 kts 237°
2026-04-20 02:09 -37.28684 145.95085 25099 ft 306 kts 237°
2026-04-20 02:09 -37.29856 145.92851 24724 ft 306 kts 237°
2026-04-20 02:10 -37.31027 145.90616 24349 ft 307 kts 237°
2026-04-20 02:10 -37.32204 145.88373 23975 ft 308 kts 237°
2026-04-20 02:10 -37.33381 145.86132 23602 ft 307 kts 237°
2026-04-20 02:10 -37.34559 145.83892 23226 ft 307 kts 237°
2026-04-20 02:11 -37.35741 145.81642 22851 ft 310 kts 237°
2026-04-20 02:11 -37.36932 145.79367 22475 ft 313 kts 237°
2026-04-20 02:11 -37.37723 145.77855 22223 ft 312 kts 237°
2026-04-20 02:11 -37.38888 145.75626 21862 ft 309 kts 237°
2026-04-20 02:12 -37.40390 145.72758 21386 ft 310 kts 237°
2026-04-20 02:12 -37.41013 145.71568 21190 ft 309 kts 237°
2026-04-20 02:12 -37.42195 145.69307 20810 ft 309 kts 237°
2026-04-20 02:12 -37.43375 145.67048 20437 ft 310 kts 237°
2026-04-20 02:13 -37.44784 145.63842 19448 ft 316 kts 247°
2026-04-20 02:13 -37.45252 145.62120 18869 ft 313 kts 255°
2026-04-20 02:13 -37.45490 145.58494 17691 ft 311 kts 274°
2026-04-20 02:13 -37.45323 145.56709 17113 ft 310 kts 278°
2026-04-20 02:14 -37.44996 145.54011 16242 ft 313 kts 278°
2026-04-20 02:14 -37.44776 145.50446 15089 ft 305 kts 270°
2026-04-20 02:14 -37.44791 145.48649 14500 ft 302 kts 269°
2026-04-20 02:14 -37.44854 145.46029 13628 ft 297 kts 268°
2026-04-20 02:15 -37.44874 145.43446 12758 ft 294 kts 270°
2026-04-20 02:15 -37.44839 145.40897 11885 ft 289 kts 271°
2026-04-20 02:15 -37.44787 145.38399 11014 ft 283 kts 271°
2026-04-20 02:15 -37.44745 145.35938 10143 ft 280 kts 271°
2026-04-20 02:16 -37.44718 145.33502 9272 ft 277 kts 271°
2026-04-20 02:16 -37.44693 145.31089 8690 ft 274 kts 271°
2026-04-20 02:16 -37.44665 145.28673 8683 ft 277 kts 271°
2026-04-20 02:16 -37.44633 145.26252 8683 ft 277 kts 271°
2026-04-20 02:17 -37.44600 145.23834 8683 ft 276 kts 271°
2026-04-20 02:17 -37.44567 145.21417 8684 ft 276 kts 271°
2026-04-20 02:17 -37.44535 145.19001 8683 ft 276 kts 271°
2026-04-20 02:17 -37.44502 145.16592 8674 ft 276 kts 271°
2026-04-20 02:18 -37.44468 145.14158 8204 ft 276 kts 271°
2026-04-20 02:18 -37.44434 145.11780 7709 ft 275 kts 271°
2026-04-20 02:18 -37.44400 145.09396 7210 ft 270 kts 271°
2026-04-20 02:18 -37.44365 145.07045 6709 ft 268 kts 271°
2026-04-20 02:19 -37.44332 145.04732 5926 ft 258 kts 271°
2026-04-20 02:19 -37.44301 145.02524 5050 ft 248 kts 271°
2026-04-20 02:19 -37.44270 145.00405 4681 ft 235 kts 271°
2026-04-20 02:19 -37.44238 144.98307 4677 ft 241 kts 271°
2026-04-20 02:20 -37.44202 144.96183 4681 ft 244 kts 271°
2026-04-20 02:20 -37.44205 144.94047 4393 ft 239 kts 265°
2026-04-20 02:20 -37.44473 144.92073 4008 ft 220 kts 265°
2026-04-20 02:20 -37.44441 144.90241 3630 ft 201 kts 270°
2026-04-20 02:21 -37.44726 144.86873 2872 ft 190 kts 257°
2026-04-20 02:21 -37.45093 144.85301 2682 ft 183 kts 250°
2026-04-20 02:21 -37.45610 144.83816 2678 ft 188 kts 243°
2026-04-20 02:22 -37.46277 144.82393 2677 ft 190 kts 236°
2026-04-20 02:22 -37.47090 144.81076 2680 ft 191 kts 229°
2026-04-20 02:22 -37.48121 144.80051 2666 ft 193 kts 198°
2026-04-20 02:22 -37.49417 144.80295 2675 ft 193 kts 154°
2026-04-20 02:23 -37.50676 144.80846 2675 ft 194 kts 172°
2026-04-20 02:23 -37.52021 144.81010 2680 ft 194 kts 174°
2026-04-20 02:23 -37.53360 144.81235 2680 ft 194 kts 172°
2026-04-20 02:23 -37.54705 144.81490 2537 ft 197 kts 172°
2026-04-20 02:24 -37.55998 144.81734 2303 ft 174 kts 172°
2026-04-20 02:24 -37.57120 144.81950 2074 ft 154 kts 172°
2026-04-20 02:24 -37.58144 144.82147 1877 ft 146 kts 172°
2026-04-20 02:24 -37.59139 144.82329 1716 ft 142 kts 172°
2026-04-20 02:25 -37.60069 144.82525 1587 ft 128 kts 172°
2026-04-20 02:25 -37.60932 144.82675 1368 ft 124 kts 173°
2026-04-20 02:25 -37.61778 144.82819 1187 ft 119 kts 173°
2026-04-20 02:25 -37.62584 144.82970 1014 ft 118 kts 172°
2026-04-20 02:26 -37.63378 144.83129 877 ft 114 kts 172°
2026-04-20 02:26 -37.64153 144.83277 721 ft 112 kts 172°
2026-04-20 02:26 -37.64921 144.83418 577 ft 111 kts 172°
2026-04-20 02:26 -37.65669 144.83558 430 ft 106 kts 172°
2026-04-20 02:27 -37.66343 144.83685 390 ft 90 kts 171°
2026-04-20 02:27 -37.66723 144.83760 383 ft 30 kts 172°
2026-04-20 02:27 -37.66914 144.83799 378 ft 26 kts 168°
2026-04-20 02:27 -37.67068 144.83895 373 ft 24 kts 146°
2026-04-20 02:28 -37.67154 144.83978 368 ft 0 kts 141°
2026-04-20 02:29 -37.67154 144.83979 368 ft 1 kts 141°
2026-04-20 02:29 -37.67192 144.84019 366 ft 14 kts 136°
2026-04-20 02:29 -37.67220 144.84156 363 ft 18 kts 84°
2026-04-20 02:30 -37.67212 144.84315 360 ft 18 kts 84°
2026-04-20 02:30 -37.67212 144.84476 356 ft 19 kts 95°
2026-04-20 02:30 -37.67255 144.84611 351 ft 6 kts 168°
2026-04-20 02:30 -37.67263 144.84613 351 ft 0 kts 171°